Lapse_Rate
7.0 6.8 6.7 6.4 6.2 5.8 5.8 6.1 7.7 8.6 9.1 8.6 9.2 9.3 9.0 8.3 8.4 8.4 7.0 6.5 6.7 6.6 6.8 6.9 7.1 7.1 7.1 6.8 6.5 6.3 6.1 5.9 5.7 5.7 5.7 5.8 5.6 5.6 5.7 5.8 5.9 6.0 6.1 6.4 6.3 6.2 6.2 6.6 6.6
6.7 6.7 6.6 6.3 5.8 5.6 5.5 7.3 8.4 8.5 8.6 8.5 8.8 9.2 9.1 8.7 8.5 8.1 7.5 7.0 6.6 6.6 6.9 6.9 7.0 7.2 7.1 6.8 6.6 6.6 6.3 6.2 6.0 5.8 5.7 5.8 5.7 5.7 5.9 5.9 5.9 6.0 6.2 6.5 6.6 6.6 6.5 6.7 6.7
6.6 6.5 6.4 6.1 5.9 5.9 6.3 7.7 8.7 8.2 8.3 8.6 9.1 9.0 9.1 9.0 8.5 8.0 7.4 7.1 7.0 7.0 6.9 7.1 7.0 7.1 7.0 6.8 6.6 6.5 6.4 6.2 6.0 5.8 5.8 5.9 5.8 5.9 6.1 6.0 5.9 6.1 6.3 6.5 6.6 6.5 6.6 6.7 6.7
6.2 6.1 6.3 5.9 6.4 7.1 7.2 7.8 8.5 8.7 8.7 8.6 8.7 8.6 8.8 8.6 8.7 7.8 7.4 7.1 6.9 7.0 7.1 7.0 7.0 7.0 6.9 6.7 6.5 6.5 6.4 6.2 6.1 5.9 5.8 5.9 5.8 6.0 6.2 6.1 6.1 6.2 6.4 6.6 6.7 6.6 6.5 6.7 6.9
5.9 5.9 5.7 5.8 6.5 7.2 7.1 7.5 8.6 8.1 8.3 8.5 8.3 8.4 8.5 8.0 8.1 8.0 7.4 7.1 7.0 7.2 7.1 7.0 7.1 7.0 6.9 6.7 6.4 6.4 6.4 6.3 6.2 6.0 5.8 5.8 5.9 6.1 6.2 6.2 6.2 6.3 6.3 6.5 6.7 6.6 6.6 6.6 6.8
5.6 6.0 5.4 5.7 6.7 6.9 7.1 7.8 8.4 8.9 8.6 8.7 8.2 8.1 8.6 8.3 8.0 7.9 7.6 7.3 7.2 7.0 7.0 7.1 7.1 7.2 6.8 6.7 6.4 6.4 6.4 6.4 6.3 6.1 6.0 6.0 6.0 6.1 6.3 6.1 6.2 6.3 6.5 6.5 6.6 6.6 6.6 6.6 6.6
6.2 6.1 5.9 5.8 5.8 6.3 7.2 7.7 7.7 8.2 8.5 8.7 8.8 8.4 8.5 8.3 7.9 7.5 7.3 7.3 7.3 7.4 7.1 6.9 6.9 7.2 6.8 6.7 6.5 6.4 6.4 6.4 6.4 6.3 6.3 6.1 6.1 6.3 6.3 6.2 6.1 6.3 6.4 6.5 6.3 6.5 6.6 6.5 6.4
5.9 6.0 5.6 5.4 5.7 6.1 6.9 7.6 7.7 8.0 8.0 8.4 9.3 8.4 8.4 8.0 7.9 7.5 7.5 7.1 7.1 7.3 7.4 6.9 6.8 7.1 6.9 6.7 6.6 6.4 6.3 6.4 6.4 6.5 6.4 6.3 6.3 6.4 6.5 6.4 6.4 6.5 6.3 6.4 6.5 6.4 6.0 6.0 6.1
5.5 5.0 4.8 5.2 5.9 6.4 6.7 7.1 8.3 8.3 8.1 8.4 9.2 8.6 8.4 8.3 8.0 7.5 7.0 6.8 6.8 7.4 7.4 7.3 7.1 6.9 7.0 6.7 6.7 6.5 6.4 6.5 6.5 6.5 6.4 6.4 6.3 6.2 6.4 6.3 6.3 6.4 6.4 6.3 6.3 5.8 5.8 6.0 5.8
5.4 5.2 5.3 6.0 6.2 6.2 6.6 6.9 7.0 7.8 7.7 8.3 8.5 8.5 8.0 8.0 8.0 7.8 7.2 6.8 6.9 7.2 7.6 7.6 7.4 7.0 6.9 6.8 6.8 6.5 6.7 6.5 6.6 6.6 6.5 6.5 6.5 6.5 6.2 6.3 6.3 6.4 6.3 6.4 6.3 6.5 6.0 5.8 5.6
6.0 5.2 6.0 6.0 6.0 6.4 6.5 6.7 6.8 7.1 7.1 7.6 7.8 8.2 8.6 7.7 7.7 7.6 7.3 6.9 6.8 7.0 7.3 7.7 7.7 7.3 7.1 7.0 6.8 6.6 6.7 6.6 6.6 6.7 6.6 6.6 6.7 6.5 6.6 6.4 6.5 6.5 6.3 6.3 6.2 6.3 6.2 6.2 5.3
5.4 6.0 6.0 6.0 6.2 6.4 6.4 6.6 6.8 7.0 6.6 7.0 7.1 7.3 7.5 7.1 6.9 7.0 6.8 6.6 6.8 6.5 7.1 7.6 7.6 7.4 7.3 7.1 7.0 6.7 6.6 6.7 6.7 6.7 6.6 6.6 6.7 6.7 6.9 6.9 6.6 6.7 6.4 6.3 6.2 6.1 6.0 5.9 5.5
5.6 6.0 6.1 6.1 6.4 6.5 6.6 6.4 6.5 6.9 6.8 7.0 6.9 7.0 7.0 7.0 6.8 6.9 6.8 6.4 6.1 6.5 6.9 7.4 7.6 7.5 7.3 7.1 7.2 6.8 6.8 6.8 6.6 6.7 6.7 6.7 6.8 6.8 7.1 7.3 7.0 7.0 6.8 6.6 6.3 6.0 5.8 5.7 5.8
6.2 6.1 6.2 6.5 6.6 6.9 6.9 6.6 6.8 6.5 6.7 6.8 7.1 7.3 7.4 7.2 7.0 6.7 6.5 6.4 6.5 6.9 6.2 6.6 7.5 7.6 7.1 7.1 7.2 7.0 6.9 6.8 6.8 6.8 6.8 6.8 7.0 7.3 7.4 7.5 7.4 7.2 7.1 6.7 6.4 6.1 5.9 5.7 5.3
6.3 6.2 6.3 6.2 6.7 7.0 7.4 7.0 6.6 6.7 7.5 7.4 7.5 7.9 7.7 7.5 7.2 6.9 6.7 6.6 6.5 6.7 6.8 6.1 6.3 7.1 7.1 7.1 7.0 7.1 6.9 6.9 6.9 6.9 6.9 7.0 7.3 7.7 7.8 7.6 7.4 7.1 6.8 6.8 6.6 6.2 5.7 5.6 5.3
6.3 6.3 6.2 7.0 7.2 7.2 7.5 6.8 6.8 7.1 7.1 7.0 7.3 7.1 7.3 7.5 7.3 7.1 6.5 6.7 6.7 6.5 6.8 6.3 6.2 6.2 7.0 7.0 7.0 7.1 6.9 6.9 6.9 7.0 7.2 7.5 7.7 8.0 7.9 7.5 7.4 7.3 7.0 6.7 6.2 6.2 5.7 5.7 5.5
5.9 6.3 6.7 6.6 7.0 7.3 7.6 7.4 7.1 7.2 7.2 7.2 7.0 7.2 7.4 7.4 7.3 7.2 6.6 6.4 6.5 6.4 6.6 6.2 6.2 6.3 6.6 6.8 6.9 7.0 7.1 6.9 6.9 7.2 7.6 7.9 8.1 8.1 7.8 7.5 7.5 7.3 7.3 6.6 6.2 6.0 5.9 5.6 5.2
6.2 6.4 6.6 6.7 7.2 7.6 7.5 7.4 7.6 7.5 7.6 7.5 7.3 7.2 7.1 7.1 7.8 7.5 6.9 6.9 6.6 6.4 6.5 6.4 6.4 6.4 6.2 6.6 6.9 7.0 7.1 7.1 7.1 7.3 7.9 8.1 8.2 8.2 7.8 7.6 7.5 7.2 7.3 6.9 6.1 5.7 5.5 5.5 5.2
6.4 6.4 6.8 6.9 7.4 7.8 7.8 7.8 7.5 7.8 7.9 7.5 7.6 7.6 7.2 7.4 7.3 7.8 7.4 7.0 6.8 6.6 6.7 6.4 6.3 6.3 6.3 6.8 6.9 7.2 7.4 7.4 7.7 7.8 8.1 8.4 8.4 8.3 7.8 7.5 7.4 7.2 7.3 6.8 6.2 5.6 5.7 5.1 5.2
6.1 6.4 6.7 7.3 7.6 8.0 8.0 7.8 7.6 7.7 7.8 7.3 7.5 7.5 7.9 7.7 8.1 7.8 7.6 7.4 7.0 7.0 6.7 6.6 6.4 6.4 6.4 7.0 7.2 7.0 7.2 7.4 7.4 7.6 8.2 8.5 8.5 8.2 7.7 7.5 7.3 7.2 7.0 6.8 6.3 5.9 5.6 5.2 5.3
7.2 7.5 7.6 7.7 7.7 8.4 8.2 7.8 7.5 7.5 7.7 8.4 8.0 8.5 8.6 7.8 7.7 7.6 7.4 7.4 7.3 7.0 6.9 6.5 6.5 6.4 6.6 6.9 7.3 6.9 7.0 7.1 7.2 7.7 8.2 8.5 8.5 8.2 7.7 7.4 7.2 7.1 6.9 6.6 6.6 6.1 5.6 5.5 5.3
8.3 8.2 8.4 8.6 8.9 8.6 8.5 7.5 7.3 7.1 7.8 8.7 8.9 8.7 8.4 7.8 7.6 7.4 7.2 7.4 7.4 7.0 7.0 6.7 6.5 6.5 6.6 6.8 7.1 6.9 7.0 7.0 7.6 8.1 8.4 8.2 8.1 8.0 7.7 7.4 7.1 7.1 6.9 6.7 6.6 6.2 5.6 5.3 5.3
8.5 8.8 8.3 8.9 9.3 8.9 8.2 8.1 6.6 7.4 8.0 8.5 8.6 9.1 8.7 8.3 7.7 7.0 7.1 7.2 7.2 7.0 7.2 6.9 6.7 6.4 6.6 6.6 7.1 6.9 6.6 7.0 7.6 8.1 8.2 8.3 8.3 7.9 7.5 7.4 7.1 7.0 6.8 6.6 6.6 5.8 5.6 5.6 5.3
8.4 8.3 8.3 7.0 8.6 8.3 7.8 8.0 6.8 7.3 8.0 8.4 8.5 8.3 8.0 7.6 7.4 7.5 7.0 7.3 7.1 7.1 6.9 6.9 6.5 6.6 6.6 6.6 6.9 6.6 6.6 7.2 7.8 8.1 8.1 8.4 8.2 7.9 7.6 7.2 7.1 6.8 6.5 6.5 6.3 5.9 6.0 5.6 5.5
8.4 8.6 7.4 7.2 7.5 7.0 7.9 7.9 6.7 8.0 8.5 7.8 7.8 8.3 8.0 7.7 7.6 7.3 7.2 7.2 6.7 6.9 6.8 6.7 6.5 6.6 6.4 6.6 6.7 6.4 6.7 7.4 7.8 7.8 8.3 8.3 8.1 7.8 7.4 7.2 6.9 6.5 6.5 6.5 6.2 6.2 5.5 5.5 5.5
8.5 8.8 7.5 7.3 7.2 7.4 7.9 6.9 7.6 8.3 8.3 6.6 6.6 7.9 7.4 7.2 7.3 7.3 7.3 7.2 6.7 6.7 6.8 6.7 6.5 6.5 6.3 6.6 6.4 6.2 7.1 7.5 7.7 7.8 8.3 8.2 8.0 7.7 7.5 7.1 6.7 6.5 6.2 6.0 5.9 5.8 5.5 5.4 5.3
8.2 7.5 7.9 6.5 8.0 6.8 7.3 7.3 7.8 7.9 7.9 6.7 5.9 7.0 7.0 7.4 7.4 7.9 7.3 7.2 6.8 6.6 6.7 6.8 6.5 6.4 6.3 6.4 6.3 6.5 7.2 7.5 7.5 8.0 8.2 8.2 7.9 7.8 7.2 7.0 6.7 6.4 6.0 5.4 5.4 5.8 5.6 5.3 5.2
8.1 8.2 7.6 6.9 7.1 6.9 7.4 6.7 6.1 5.9 6.9 6.5 6.0 6.6 7.1 7.2 7.1 7.4 7.2 7.0 6.6 7.0 6.5 6.3 6.4 6.1 6.0 6.4 6.5 7.0 7.4 7.5 7.7 8.0 8.0 7.6 7.7 7.4 7.4 6.9 6.4 6.0 5.5 5.9 5.7 5.4 5.6 4.9 5.2
7.7 7.8 6.9 7.0 7.6 6.8 6.7 6.0 5.6 5.7 6.0 5.8 6.1 6.8 7.3 7.3 7.5 8.0 7.0 6.7 6.6 6.7 6.5 6.3 5.8 5.9 6.2 6.5 7.0 7.4 7.6 7.7 7.9 8.1 7.8 8.0 7.8 7.6 7.2 6.5 6.0 5.8 5.6 5.7 5.2 5.6 5.3 5.0 5.4
6.7 6.9 7.2 7.5 7.7 7.4 6.9 6.2 5.7 5.8 5.7 5.6 6.2 6.7 6.9 7.0 6.9 7.5 6.8 6.4 6.3 6.4 6.6 6.4 6.7 6.5 6.6 6.9 6.8 7.3 7.6 7.9 8.2 7.9 7.9 8.1 7.6 7.5 6.7 6.2 5.7 5.6 5.6 5.3 5.0 5.4 5.2 5.3 5.2
Wind_Speed
4 5 2 3 2 2 5 8 13 19 13 4 2 8 6 2 4 4 2 14 18 17 15 17 20 21 19 18 17 17 16 16 16 16 17 16 17 17 18 18 18 18 18 18 17 16 17 19 21
4 4 1 1 3 3 5 12 21 18 9 3 7 5 7 5 4 12 7 12 16 16 15 14 17 19 19 18 18 17 17 16 16 16 17 17 17 17 17 18 18 18 18 17 17 17 17 19 20
2 3 2 4 4 8 6 11 19 11 9 1 2 2 2 2 6 7 15 16 16 13 14 15 18 18 18 18 18 18 18 17 17 16 17 18 19 18 19 19 18 17 17 17 18 18 18 18 19
3 3 4 3 10 8 20 17 20 15 7 2 2 2 2 6 7 9 16 17 15 13 14 18 18 18 18 18 18 18 18 18 18 18 17 18 18 18 19 19 17 17 16 17 18 19 18 21 20
2 1 4 5 12 8 14 17 21 18 9 5 5 3 4 5 18 18 15 14 13 9 12 17 18 17 16 17 18 18 19 19 18 17 18 17 17 18 21 21 21 18 17 17 20 20 20 20 20
1 2 2 13 15 10 13 17 18 17 13 4 4 4 3 8 10 11 13 12 13 13 10 15 16 16 15 15 17 17 19 20 19 19 17 17 18 19 20 21 23 20 18 19 17 22 20 19 19
4 2 7 8 9 14 14 12 8 11 15 8 9 9 5 7 6 9 10 15 14 14 12 9 12 13 16 16 18 18 19 19 18 18 18 17 18 20 18 21 22 22 21 20 18 18 19 18 18
4 4 13 11 11 21 14 18 7 7 7 6 3 4 3 3 8 9 8 12 13 12 12 11 9 11 11 11 18 19 20 18 17 18 18 19 18 19 19 20 21 21 21 21 19 14 12 17 18
4 10 17 14 15 18 15 20 20 6 6 2 2 2 10 10 8 6 6 5 10 9 11 11 10 8 11 11 14 17 18 17 18 17 17 17 12 14 16 16 20 20 21 17 19 15 17 10 8
4 9 14 9 12 13 16 13 12 11 13 5 2 3 8 11 8 9 7 7 6 8 10 10 11 9 9 11 13 12 13 14 14 12 12 12 12 13 13 15 18 18 17 20 22 20 17 11 9
7 16 11 15 16 16 12 19 8 12 9 7 5 7 6 8 10 10 9 9 12 12 8 11 11 10 9 7 8 9 9 10 12 15 13 13 12 13 11 11 13 14 19 15 18 15 14 12 14
15 17 19 19 21 23 22 12 15 11 9 10 9 6 4 7 9 11 10 11 10 11 14 15 14 12 10 4 7 8 7 8 6 12 15 11 4 5 7 7 10 12 13 15 15 11 11 12 13
17 16 16 16 18 19 16 19 18 20 8 14 13 10 9 7 9 6 9 10 10 12 16 17 16 15 12 8 7 8 8 8 10 12 15 13 6 7 7 7 10 11 15 15 11 11 7 7 9
8 14 16 18 18 11 13 13 7 12 9 18 22 15 11 11 9 9 8 10 9 9 17 16 16 16 15 12 12 9 8 8 10 11 13 15 11 8 8 8 7 9 14 14 14 8 5 3 6
14 14 17 19 9 9 8 18 15 7 9 18 23 20 16 18 17 11 10 10 10 8 10 19 19 17 17 16 11 8 5 7 8 8 16 15 15 12 10 9 9 10 14 15 11 8 7 4 6
15 8 9 12 15 17 6 22 19 9 14 23 20 17 19 24 23 21 12 12 10 10 9 18 16 17 17 15 9 8 6 5 4 6 12 15 15 17 9 8 8 14 15 12 8 8 7 7 7
7 15 16 20 11 15 10 20 15 10 20 21 19 19 19 22 26 19 14 14 15 14 11 17 18 19 18 13 10 8 7 5 4 4 7 12 15 17 9 8 7 16 9 10 9 8 9 9 7
4 10 14 18 22 15 18 22 18 10 12 11 11 14 15 11 18 16 16 16 11 17 16 17 17 19 17 12 9 6 6 6 5 4 4 10 11 14 9 7 9 11 9 8 9 10 8 6 9
17 19 21 19 13 13 18 11 16 12 15 18 13 9 9 11 8 8 8 12 13 15 17 14 19 18 14 11 11 9 10 7 6 7 6 9 10 13 10 8 10 10 10 11 11 7 9 3 9
22 25 25 22 21 17 14 12 8 9 9 14 11 10 11 9 10 9 11 8 9 11 12 11 22 20 16 12 11 6 8 5 6 4 7 11 9 10 8 10 10 11 9 10 10 10 5 3 8
22 20 19 19 16 8 8 15 9 16 15 24 20 17 21 18 13 9 12 13 9 10 9 14 19 20 16 14 9 5 5 5 4 6 7 6 11 11 10 10 10 10 9 9 12 12 11 6 7
21 17 21 20 19 8 3 15 14 11 21 24 24 28 19 11 8 7 7 2 4 8 6 17 20 19 15 17 13 15 12 9 8 7 7 7 9 10 9 11 10 12 9 11 10 11 10 8 12
23 19 19 21 17 3 9 6 16 11 19 22 20 11 18 8 4 11 15 9 7 4 7 12 21 19 18 17 16 13 11 7 6 6 10 11 10 10 11 11 11 11 9 11 13 12 12 11 11
23 18 7 15 3 9 14 9 13 15 14 13 6 12 13 13 13 15 14 17 17 17 6 9 18 18 18 16 15 16 14 11 9 9 9 8 8 8 11 11 12 12 12 13 12 13 15 13 12
16 16 4 4 3 11 9 11 19 13 20 1 3 16 15 16 17 17 18 17 18 19 9 9 13 18 17 16 15 13 12 14 13 11 9 9 7 6 9 12 11 10 11 14 13 13 14 14 12
18 10 5 5 6 8 12 9 10 11 5 16 10 17 18 18 16 17 17 17 18 18 2 10 12 14 13 13 12 8 13 10 9 10 8 8 9 10 12 10 10 13 14 14 15 12 12 15 13
6 6 18 11 7 3 4 7 7 21 15 16 17 18 16 16 16 19 18 18 20 17 15 11 9 4 9 9 7 8 10 8 8 9 8 7 6 6 7 11 12 11 13 14 16 12 13 14 16
1 3 2 6 2 4 1 3 4 12 17 6 17 17 17 18 20 19 18 19 19 19 17 14 12 10 5 9 8 8 8 7 8 9 7 6 5 5 5 7 10 12 13 13 14 10 13 13 12
2 1 6 8 4 2 2 4 3 10 12 16 18 18 17 17 18 17 17 16 16 16 16 17 11 10 4 8 11 10 8 9 7 6 6 5 4 4 6 6 6 9 12 14 13 10 13 14 15
13 10 12 3 2 4 5 2 7 8 6 17 19 18 16 18 18 17 17 18 18 18 18 17 18 10 5 6 11 8 8 7 7 6 6 5 5 5 5 5 6 6 9 11 13 13 13 15 14
Wind_Direction
180 203 184 14 37 102 230 242 244 273 286 277 103 88 159 191 100 169 108 108 125 140 153 155 147 143 146 147 146 147 144 143 142 142 138 134 131 130 128 123 124 126 129 130 127 122 118 117 115
203 225 328 257 137 252 271 241 254 264 275 10 36 28 46 107 92 125 114 137 135 137 148 151 147 141 143 148 150 150 151 150 148 148 146 141 141 141 136 135 138 136 135 135 132 127 123 121 119
358 309 85 165 190 224 236 258 268 286 306 30 115 77 68 29 82 138 130 137 127 134 145 150 146 143 144 148 153 156 156 155 152 153 153 151 156 151 146 149 148 141 144 143 140 136 133 126 127
165 355 308 195 232 239 227 253 271 301 284 35 18 22 63 104 123 130 136 126 127 141 136 144 145 143 146 151 154 160 160 161 158 160 162 164 163 158 155 154 151 148 153 154 148 137 137 138 140
299 282 225 221 244 257 268 264 273 276 272 222 130 271 21 18 118 125 135 133 138 127 132 144 147 144 149 153 151 159 160 161 162 167 171 169 169 167 163 161 159 159 154 153 154 140 144 148 147
304 182 240 229 243 258 251 251 262 272 268 188 127 110 109 149 118 143 140 127 129 127 130 140 147 148 151 154 151 158 162 166 171 175 176 174 171 174 172 171 168 163 158 159 158 148 150 154 153
208 274 244 267 272 274 263 272 269 274 310 222 175 157 185 78 122 142 139 127 127 127 129 137 145 154 157 162 156 163 162 170 173 181 176 182 179 183 177 178 172 167 168 166 156 145 150 158 161
199 255 261 255 252 264 267 283 284 301 281 335 115 159 266 188 96 105 122 120 129 129 136 146 150 154 156 162 164 164 165 170 178 183 182 182 187 189 186 187 184 178 175 160 170 154 168 173 169
246 238 249 251 256 275 288 287 293 279 252 230 339 88 151 140 114 103 107 100 129 138 147 150 154 162 167 165 171 164 163 172 179 183 184 178 177 188 189 185 189 185 180 178 139 159 162 139 141
191 242 245 236 266 282 281 283 306 327 313 296 349 54 138 142 147 154 163 155 147 151 157 155 154 169 171 176 168 160 163 173 176 168 166 160 179 183 182 185 191 182 159 127 127 125 125 141 180
234 251 271 275 278 269 275 296 291 311 314 261 302 298 190 173 169 167 182 177 175 177 160 167 160 171 177 180 170 160 164 168 178 178 172 171 183 180 153 154 153 140 136 134 138 149 149 167 169
243 240 237 248 254 264 270 276 282 283 279 296 302 286 288 267 208 184 186 191 180 179 177 174 172 171 183 155 176 167 167 173 178 184 175 170 167 151 140 143 142 139 142 141 150 167 168 190 165
253 251 255 257 249 253 259 260 270 275 314 307 302 312 300 274 265 220 201 196 188 188 184 182 178 177 180 165 180 176 173 180 179 180 181 168 159 154 143 145 144 146 151 153 161 173 181 204 172
263 263 262 259 262 261 265 265 268 275 309 296 293 284 285 285 251 239 203 216 212 200 183 184 186 184 184 184 177 183 170 179 175 178 179 165 155 156 151 151 152 151 162 162 167 179 179 187 153
269 285 289 273 264 264 265 276 252 249 269 268 271 282 281 271 272 246 224 203 212 218 174 184 186 184 187 189 176 171 162 176 175 174 169 162 154 161 157 159 162 163 162 161 158 162 178 175 182
290 279 270 267 250 262 233 263 262 239 239 252 256 261 265 264 259 258 218 215 207 221 184 184 187 187 182 186 175 170 161 151 158 164 166 161 157 159 157 163 157 160 162 168 179 176 182 194 194
240 255 254 278 250 262 241 262 264 245 245 244 247 251 248 263 246 238 220 208 216 216 216 181 185 185 180 177 174 167 153 153 160 153 163 168 164 162 158 165 162 161 162 176 179 185 184 189 193
256 234 255 252 259 251 254 255 263 256 262 238 243 255 252 249 236 238 227 217 205 218 218 179 180 185 179 173 155 157 159 157 162 171 165 161 166 163 152 155 158 164 169 176 182 183 188 191 185
261 268 276 269 278 246 246 259 268 248 266 267 259 255 273 280 245 227 214 227 224 210 216 172 177 182 171 165 164 168 182 168 172 185 180 179 165 160 165 164 163 173 177 184 182 173 179 171 190
246 249 258 271 275 275 283 280 268 271 262 269 252 263 260 267 281 284 277 234 211 206 200 161 176 171 177 176 176 170 167 164 171 149 182 191 174 171 170 166 174 180 182 174 171 177 168 159 175
249 257 266 267 267 247 299 292 291 276 275 273 273 256 262 259 260 255 262 256 235 211 196 161 168 172 169 160 147 116 110 122 147 190 177 185 178 186 180 173 176 180 184 189 183 177 176 170 169
276 258 260 267 269 251 211 276 267 267 255 266 265 261 234 231 243 232 228 222 223 233 233 156 164 165 162 157 162 161 174 181 194 192 189 188 184 181 185 177 177 184 185 185 187 175 179 169 181
277 279 299 267 262 253 248 271 276 258 274 279 291 229 228 220 111 32 8 340 294 244 217 172 163 165 162 167 169 168 174 183 162 157 162 189 190 183 194 189 182 184 179 186 181 179 182 180 181
283 287 217 279 293 247 241 234 267 249 250 295 145 85 76 55 43 35 21 7 350 333 210 177 163 164 162 165 169 172 176 165 159 167 182 185 186 190 197 195 197 196 195 191 193 187 182 181 184
282 265 258 240 210 247 211 232 242 263 250 99 60 73 57 48 33 24 16 2 340 322 268 173 148 160 165 170 170 171 169 165 170 183 183 174 180 188 193 189 192 194 195 193 184 192 187 185 182
262 214 201 207 214 256 215 250 245 248 216 103 33 73 53 36 30 26 9 359 346 335 204 154 133 150 163 166 172 164 170 176 184 179 175 177 190 197 203 203 196 204 199 198 197 190 187 185 185
194 184 199 268 309 232 232 273 35 358 50 18 89 64 54 39 28 21 9 360 357 356 355 20 53 107 160 166 158 161 163 150 154 157 152 164 161 167 178 200 201 204 202 200 194 189 187 185 188
235 105 131 232 275 248 181 281 81 33 19 341 55 57 48 37 27 15 8 3 357 355 348 1 2 15 190 164 158 124 120 131 125 127 132 142 144 140 170 206 209 206 205 194 193 182 179 185 185
41 176 213 217 215 280 304 78 66 33 18 59 63 55 46 39 29 16 4 360 0 359 359 353 7 346 8 139 110 112 111 114 119 125 119 113 135 167 200 216 229 216 210 199 183 177 181 183 181
249 211 213 120 258 233 110 11 303 347 54 52 54 50 52 42 28 14 8 360 1 360 2 357 350 346 21 63 109 112 118 116 116 117 134 136 171 187 190 199 202 214 199 177 183 168 174 180 182